137  
ASUS43 KIWX 231810  
RWRIWX  
 
KIWX WEATHER ROUNDUP  
NATIONAL WEATHER SERVICE NORTHERN INDIANA  
100 PM EST FRI FEB 23 2018  
 
NOTE: "FAIR" INDICATES FEW OR NO CLOUDS BELOW 12,000 FEET WITH NO  
SIGNIFICANT WEATHER AND/OR S TO VISIBILITY
.  
 
* THESE STATIONS ARE NOT UNDER NWS QUALITY CONTROL. THEY ALSO MAY NOT  
REPORT WEATHER SUCH AS PRECIPITATION OR FOG.
 
 
INZ001>027-231900-  
NORTHERN INDIANA  
 
CITY SKY/WX TMP DP RH WIND PRES REMARKS
 
GARY* N/A 45 39 81 W17G30 30.18R  
VALPARAISO CLOUDY 46 43 89 W17 30.17R  
6HR MIN TEMP: 40; 6HR MAX TEMP: 47; 6HR PCP: 0.01;  
 
MICHIGAN CITY* CLOUDY 43 43 100 W10 30.17R  
LAPORTE* CLOUDY 45 43 91 W13 30.16S  
6HR MIN TEMP: 38; 6HR MAX TEMP: 45; 6HR PCP: 0.02;  
 
SOUTH BEND CLOUDY 45 43 93 W12 30.15R  
6HR MIN TEMP: 37; 6HR MAX TEMP: 45; 6HR PCP: 0.09;  
 
ELKHART* CLOUDY 45 43 93 W15G32 30.15R  
GOSHEN CLOUDY 47 44 90 W17 30.14R  
6HR MIN TEMP: 37; 6HR MAX TEMP: 47; 6HR PCP: 0.10;  
 
MONTICELLO* CLOUDY 46 45 95 W12G18 30.20R  
6HR MIN TEMP: 39; 6HR MAX TEMP: 47; 6HR PCP: 0.05;  
 
LOGANSPORT* CLOUDY 46 45 93 W16G22 30.21R  
ROCHESTER* CLOUDY 48 46 93 W15G24 30.18S  
WARSAW* CLOUDY 46 45 93 SW14 30.15S  
AUBURN* CLOUDY 46 46 100 SW10G21 30.14S  
FORT WAYNE CLOUDY 53 50 89 W18 30.15S  
6HR MIN TEMP: 38; 6HR MAX TEMP: 53; 6HR PCP: 0.17;  
 
HUNTINGTON* CLOUDY 51 49 95 W16G24 30.17R  
6HR MIN TEMP: 37; 6HR MAX TEMP: 51; 6HR PCP: 0.13;  
 
PERU/GRISSOM CLOUDY 49 49 100 W18G26 30.18S  
6HR MIN TEMP: 40; 6HR MAX TEMP: 50; 6HR PCP: 0.12;  
 
MARION* CLOUDY 51 51 100 W18G25 30.19R  
6HR PCP: 0.03;  
 

 
INZ028>050-231900-  
CENTRAL INDIANA  
 
CITY SKY/WX TMP DP RH WIND PRES REMARKS
 
LAFAYETTE CLOUDY 48 45 89 SW14 30.21R  
6HR MIN TEMP: 43; 6HR MAX TEMP: 49; 6HR PCP: 0.11;  
 
KOKOMO* CLOUDY 50 48 93 W15 30.20R  
6HR MIN TEMP: 41; 6HR MAX TEMP: 51; 6HR PCP: 0.09;  
 
MUNCIE* CLOUDY 58 53 84 SW10 30.17F  
6HR MIN TEMP: 48; 6HR MAX TEMP: 59; 6HR PCP: 0.04;  
 
INDIANAPOLIS CLOUDY 54 51 90 SW16 30.22F  
6HR MIN TEMP: 48; 6HR MAX TEMP: 56; 6HR PCP: 0.03;  
 

 
MIZ043>046-050>051-056>058-064>065-071>073-077>080-231900-  
SOUTHWEST LOWER MICHIGAN  
 
CITY SKY/WX TMP DP RH WIND PRES REMARKS
 
BATTLE CREEK CLOUDY 44 43 96 SW12 30.10S FOG  
6HR MIN TEMP: 37; 6HR MAX TEMP: 44; 6HR PCP: 0.03;  
 
BENTON HARBOR CLOUDY 43 40 89 W16 30.15R FOG  
6HR MIN TEMP: 39; 6HR MAX TEMP: 46; 6HR PCP: 0.08;  
 
COLDWATER* CLOUDY 46 46 100 W14G21 30.11S FOG  
6HR MIN TEMP: 36; 6HR MAX TEMP: 46;  
 
HILLSDALE* CLOUDY 46 45 93 W13G20 30.10S  
HOLLAND CLOUDY 42 40 92 W15G24 30.12R FOG  
6HR MIN TEMP: 37; 6HR MAX TEMP: 45; 6HR PCP: 0.07;  
 
GRAND RAPIDS DRIZZLE 44 43 96 W21G26 30.09R FOG  
6HR MIN TEMP: 36; 6HR MAX TEMP: 44; 6HR PCP: 0.11;  
 
KALAMAZOO CLOUDY 46 42 86 W16G23 30.12R  
6HR MIN TEMP: 37; 6HR MAX TEMP: 46; 6HR PCP: 0.02;  
 
STURGIS* CLOUDY 47 45 94 W15G23 30.12S  
6HR MIN TEMP: 37; 6HR MAX TEMP: 47; 6HR PCP: 0.08;  
 
THREE RIVERS* CLOUDY 46 45 96 W10G17 30.13S  
6HR MIN TEMP: 37; 6HR MAX TEMP: 46;  
 

 
OHZ001>008-015>018-024>025-231900-  
NORTHWEST OHIO  
 
CITY SKY/WX TMP DP RH WIND PRES REMARKS
 
WAUSEON* CLOUDY 48 48 100 W15 30.11S  
DEFIANCE CLOUDY 49 46 90 SW12 30.12F  
6HR MIN TEMP: 36; 6HR MAX TEMP: 49; 6HR PCP: 0.22;  
 
FINDLAY CLOUDY 60 54 80 SW16G25 30.12S  
6HR MIN TEMP: 40; 6HR MAX TEMP: 60; 6HR PCP: 0.04;  
 
TOLEDO EXPRESS CLOUDY 50 50 100 SW18 30.11R  
6HR MIN TEMP: 36; 6HR MAX TEMP: 50; 6HR PCP: 0.26;  
 
TOLEDO METCALF CLOUDY 50 48 93 SW15 30.12S  
6HR MIN TEMP: 37; 6HR MAX TEMP: 50; 6HR PCP: 0.16;  
 
LIMA CLOUDY 59 57 93 SW20 30.15S  
6HR MIN TEMP: 42; 6HR MAX TEMP: 59; 6HR PCP: 0.02;  
 

 
AND FOR LAKE MICHIGAN COASTAL AND OPEN LAKE BUOY OBSERVATIONS  
 
STATION/POSITION TEMP WIND PRES VSBY WAVE
 
AIR SEA DIR/SP/G HT/PER  
(F) (DEG/KT/KT) (MB) (MI) (FT/S)  
CALUMET HARBOR 42 240/ 8/ 14 1020.9R  
MICHIGAN CITY 38 230/ 12/ 13 N/A  
BURNS HARBOR 40 260/ 13/ 18 1021.7R  
SAINT JOSEPH 37 210/ 10/ 12 1021.3  
 

 

 
 
 
CLICK HERE TO GO TO PREVIOUS BULLETINS.

The Nexlab IN Page
The Nexlab OH Page
The Nexlab MI Page Main Text Page